Time,TemperatureF,DewpointF,PressureIn,WindDirection,WindDirectionDegrees,WindSpeedMPH,WindSpeedGustMPH,Humidity,HourlyPrecipIn,Conditions,Clouds,dailyrainin,SoftwareType,DateUTC
2013-04-15 00:00:00,35.1,28.9,30.22,West,280,0.0,0.0,78,0.00,CLR,,0.00,WeatherDisplay:10.37,2013-04-15 04:00:00,
2013-04-15 00:05:00,35.1,29.2,30.22,West,280,0.0,0.0,79,0.00,CLR,,0.00,WeatherDisplay:10.37,2013-04-15 04:05:00,
2013-04-15 00:10:00,35.0,29.1,30.22,West,280,0.1,1.0,79,0.00,CLR,,0.00,WeatherDisplay:10.37,2013-04-15 04:10:00,
2013-04-15 00:15:00,34.8,29.0,30.22,West,280,0.0,0.0,79,0.00,CLR,,0.00,WeatherDisplay:10.37,2013-04-15 04:15:00,
2013-04-15 00:20:00,34.6,28.8,30.22,West,280,0.5,1.2,79,0.00,CLR,,0.00,WeatherDisplay:10.37,2013-04-15 04:20:00,
2013-04-15 00:25:00,34.4,28.6,30.22,West,280,0.0,1.0,79,0.00,CLR,,0.00,WeatherDisplay:10.37,2013-04-15 04:25:00,
2013-04-15 00:30:00,34.4,28.9,30.22,West,280,0.7,2.3,80,0.00,CLR,,0.00,WeatherDisplay:10.37,2013-04-15 04:30:00,
2013-04-15 00:35:00,34.2,29.0,30.22,West,280,0.0,0.0,81,0.00,CLR,,0.00,WeatherDisplay:10.37,2013-04-15 04:35:00,
2013-04-15 00:40:00,34.1,28.9,30.22,West,280,0.0,0.0,81,0.00,CLR,,0.00,WeatherDisplay:10.37,2013-04-15 04:40:00,
2013-04-15 00:45:00,34.0,28.8,30.22,West,280,0.1,1.2,81,0.00,CLR,,0.00,WeatherDisplay:10.37,2013-04-15 04:45:00,
2013-04-15 00:50:00,34.1,28.9,30.22,West,280,0.0,0.0,81,0.00,CLR,,0.00,WeatherDisplay:10.37,2013-04-15 04:50:00,
2013-04-15 00:55:00,34.2,29.0,30.22,West,280,0.0,0.0,81,0.00,CLR,,0.00,WeatherDisplay:10.37,2013-04-15 04:55:00,
2013-04-15 01:00:00,34.2,28.7,30.22,West,280,1.0,2.3,80,0.00,CLR,,0.00,WeatherDisplay:10.37,2013-04-15 05:00:00,
2013-04-15 01:05:00,34.3,28.8,30.22,West,280,0.1,2.3,80,0.00,CLR,,0.00,WeatherDisplay:10.37,2013-04-15 05:05:00,
2013-04-15 01:10:00,34.5,29.3,30.22,West,280,0.1,1.0,81,0.00,CLR,,0.00,WeatherDisplay:10.37,2013-04-15 05:10:00,
2013-04-15 01:15:00,34.5,29.0,30.23,West,280,0.0,1.2,80,0.00,CLR,,0.00,WeatherDisplay:10.37,2013-04-15 05:15:00,
2013-04-15 01:20:00,34.4,28.9,30.23,West,280,0.0,0.0,80,0.00,CLR,,0.00,WeatherDisplay:10.37,2013-04-15 05:20:00,
2013-04-15 01:25:00,34.4,28.9,30.23,West,280,0.0,0.0,80,0.00,CLR,,0.00,WeatherDisplay:10.37,2013-04-15 05:25:00,
2013-04-15 01:30:00,34.3,28.8,30.23,West,280,0.0,0.0,80,0.00,CLR,,0.00,WeatherDisplay:10.37,2013-04-15 05:30:00,
2013-04-15 01:35:00,34.1,28.9,30.23,West,280,0.6,1.2,81,0.00,CLR,,0.00,WeatherDisplay:10.37,2013-04-15 05:35:00,
2013-04-15 01:40:00,33.7,28.5,30.23,West,280,0.0,0.0,81,0.00,CLR,,0.00,WeatherDisplay:10.37,2013-04-15 05:40:00,
2013-04-15 01:45:00,33.6,28.4,30.22,West,280,0.0,2.3,81,0.00,CLR,,0.00,WeatherDisplay:10.37,2013-04-15 05:45:00,
2013-04-15 01:50:00,33.6,28.7,30.22,West,280,0.3,2.3,82,0.00,CLR,,0.00,WeatherDisplay:10.37,2013-04-15 05:50:00,
2013-04-15 01:55:00,33.6,28.7,30.23,West,280,0.0,1.2,82,0.00,CLR,,0.00,WeatherDisplay:10.37,2013-04-15 05:55:00,
2013-04-15 02:00:00,33.7,28.8,30.23,West,280,0.0,0.0,82,0.00,CLR,,0.00,WeatherDisplay:10.37,2013-04-15 06:00:00,
2013-04-15 02:05:00,33.7,29.1,30.23,West,280,0.2,2.0,83,0.00,CLR,,0.00,WeatherDisplay:10.37,2013-04-15 06:05:00,
2013-04-15 02:10:00,33.7,28.8,30.23,West,280,0.1,1.2,82,0.00,CLR,,0.00,WeatherDisplay:10.37,2013-04-15 06:10:00,
2013-04-15 02:15:00,33.9,29.3,30.23,West,280,0.0,0.0,83,0.00,CLR,,0.00,WeatherDisplay:10.37,2013-04-15 06:15:00,
2013-04-15 02:20:00,34.1,29.5,30.23,West,280,0.0,0.0,83,0.00,CLR,,0.00,WeatherDisplay:10.37,2013-04-15 06:20:00,
2013-04-15 02:25:00,34.2,29.3,30.23,West,280,0.0,0.0,82,0.00,CLR,,0.00,WeatherDisplay:10.37,2013-04-15 06:25:00,
2013-04-15 02:30:00,34.2,29.0,30.23,West,280,0.0,0.0,81,0.00,CLR,,0.00,WeatherDisplay:10.37,2013-04-15 06:30:00,
2013-04-15 02:35:00,34.3,29.1,30.23,West,280,0.3,2.3,81,0.00,CLR,,0.00,WeatherDisplay:10.37,2013-04-15 06:35:00,
2013-04-15 02:40:00,34.4,29.2,30.23,West,280,0.0,0.0,81,0.00,CLR,,0.00,WeatherDisplay:10.37,2013-04-15 06:40:00,
2013-04-15 02:45:00,34.4,28.9,30.23,West,280,0.8,2.3,80,0.00,CLR,,0.00,WeatherDisplay:10.37,2013-04-15 06:45:00,
2013-04-15 02:50:00,34.4,28.9,30.23,West,280,0.0,0.0,80,0.00,CLR,,0.00,WeatherDisplay:10.37,2013-04-15 06:50:00,
2013-04-15 02:55:00,34.2,29.0,30.23,West,280,0.0,0.0,81,0.00,CLR,,0.00,WeatherDisplay:10.37,2013-04-15 06:55:00,
2013-04-15 03:00:00,34.0,29.1,30.23,West,280,0.0,0.0,82,0.00,CLR,,0.00,WeatherDisplay:10.37,2013-04-15 07:00:00,
2013-04-15 03:05:00,33.7,28.8,30.24,West,280,0.4,1.2,82,0.00,CLR,,0.00,WeatherDisplay:10.37,2013-04-15 07:05:00,
2013-04-15 03:41:00,32.2,28.5,30.24,West,280,0.0,2.3,86,0.00,CLR,,0.00,WeatherDisplay:10.37,2013-04-15 07:41:00,
2013-04-15 03:46:00,32.0,28.3,30.24,West,280,0.0,0.0,86,0.00,CLR,,0.00,WeatherDisplay:10.37,2013-04-15 07:46:00,
2013-04-15 03:48:00,31.9,28.2,30.24,West,280,0.0,0.0,86,0.00,CLR,,0.00,WeatherDisplay:10.37,2013-04-15 07:48:00,
2013-04-15 03:53:00,31.7,28.0,30.25,West,280,0.0,0.0,86,0.00,CLR,,0.00,WeatherDisplay:10.37,2013-04-15 07:53:00,
2013-04-15 03:58:00,31.4,27.7,30.25,West,280,0.0,0.0,86,0.00,CLR,,0.00,WeatherDisplay:10.37,2013-04-15 07:58:00,
2013-04-15 04:03:00,31.1,27.4,30.26,West,280,0.0,0.0,86,0.00,CLR,,0.00,WeatherDisplay:10.37,2013-04-15 08:03:00,
2013-04-15 04:08:00,31.0,27.6,30.26,West,280,0.3,1.2,87,0.00,CLR,,0.00,WeatherDisplay:10.37,2013-04-15 08:08:00,
2013-04-15 04:13:00,30.8,27.7,30.26,West,280,0.0,0.0,88,0.00,CLR,,0.00,WeatherDisplay:10.37,2013-04-15 08:13:00,
2013-04-15 04:18:00,30.7,27.6,30.26,West,280,0.0,0.0,88,0.00,CLR,,0.00,WeatherDisplay:10.37,2013-04-15 08:18:00,
2013-04-15 04:23:00,30.7,27.6,30.26,West,280,0.0,0.0,88,0.00,CLR,,0.00,WeatherDisplay:10.37,2013-04-15 08:23:00,
2013-04-15 04:28:00,30.7,27.8,30.26,West,280,0.0,0.0,89,0.00,CLR,,0.00,WeatherDisplay:10.37,2013-04-15 08:28:00,
2013-04-15 04:34:00,30.8,27.9,30.27,West,280,0.0,0.0,89,0.00,CLR,,0.00,WeatherDisplay:10.37,2013-04-15 08:34:00,
2013-04-15 04:35:00,30.8,27.9,30.26,West,280,0.0,0.0,89,0.00,CLR,,0.00,WeatherDisplay:10.37,2013-04-15 08:35:00,
2013-04-15 04:40:00,30.8,28.2,30.26,West,280,0.0,0.0,90,0.00,CLR,,0.00,WeatherDisplay:10.37,2013-04-15 08:40:00,
2013-04-15 04:45:00,30.7,28.1,30.27,West,280,0.0,0.0,90,0.00,CLR,,0.00,WeatherDisplay:10.37,2013-04-15 08:45:00,
2013-04-15 04:50:00,30.5,27.6,30.27,West,280,0.1,1.2,89,0.00,CLR,,0.00,WeatherDisplay:10.37,2013-04-15 08:50:00,
2013-04-15 04:55:00,30.2,27.3,30.27,West,280,0.0,0.0,89,0.00,CLR,,0.00,WeatherDisplay:10.37,2013-04-15 08:55:00,
2013-04-15 05:00:00,30.1,27.3,30.27,West,280,0.0,0.0,89,0.00,CLR,,0.00,WeatherDisplay:10.37,2013-04-15 09:00:00,
2013-04-15 05:05:00,30.0,27.4,30.27,West,280,0.0,0.0,90,0.00,CLR,,0.00,WeatherDisplay:10.37,2013-04-15 09:05:00,
2013-04-15 05:10:00,30.0,27.4,30.27,West,280,0.0,0.0,90,0.00,CLR,,0.00,WeatherDisplay:10.37,2013-04-15 09:10:00,
2013-04-15 05:15:00,30.1,27.5,30.28,West,280,0.0,0.0,90,0.00,CLR,,0.00,WeatherDisplay:10.37,2013-04-15 09:15:00,
2013-04-15 05:20:00,29.9,27.3,30.28,West,280,0.6,1.2,90,0.00,CLR,,0.00,WeatherDisplay:10.37,2013-04-15 09:20:00,
2013-04-15 05:25:00,29.8,27.2,30.28,West,280,0.0,0.0,90,0.00,CLR,,0.00,WeatherDisplay:10.37,2013-04-15 09:25:00,
2013-04-15 05:30:00,29.6,27.0,30.28,West,280,0.0,0.0,90,0.00,CLR,,0.00,WeatherDisplay:10.37,2013-04-15 09:30:00,
2013-04-15 05:35:00,29.4,26.8,30.28,West,280,0.0,0.0,90,0.00,CLR,,0.00,WeatherDisplay:10.37,2013-04-15 09:35:00,
2013-04-15 05:40:00,29.3,26.7,30.29,West,280,0.0,0.0,90,0.00,CLR,,0.00,WeatherDisplay:10.37,2013-04-15 09:40:00,
2013-04-15 05:45:00,29.3,26.7,30.29,West,280,0.0,0.0,90,0.00,CLR,,0.00,WeatherDisplay:10.37,2013-04-15 09:45:00,
2013-04-15 05:50:00,29.3,27.0,30.29,West,280,0.0,0.0,91,0.00,CLR,,0.00,WeatherDisplay:10.37,2013-04-15 09:50:00,
2013-04-15 05:55:00,29.4,27.1,30.29,West,280,0.0,0.0,91,0.00,CLR,,0.00,WeatherDisplay:10.37,2013-04-15 09:55:00,
2013-04-15 06:00:00,29.5,27.2,30.30,West,280,0.0,0.0,91,0.00,CLR,,0.00,WeatherDisplay:10.37,2013-04-15 10:00:00,
2013-04-15 06:05:00,29.6,27.6,30.30,West,280,0.0,0.0,92,0.00,CLR,,0.00,WeatherDisplay:10.37,2013-04-15 10:05:00,
2013-04-15 06:10:00,29.6,27.3,30.30,West,280,0.0,0.0,91,0.00,CLR,,0.00,WeatherDisplay:10.37,2013-04-15 10:10:00,
2013-04-15 06:15:00,29.5,27.2,30.31,West,280,0.0,0.0,91,0.00,CLR,,0.00,WeatherDisplay:10.37,2013-04-15 10:15:00,
2013-04-15 06:20:00,29.4,27.1,30.31,West,280,0.7,1.2,91,0.00,CLR,,0.00,WeatherDisplay:10.37,2013-04-15 10:20:00,
2013-04-15 06:25:00,29.3,27.0,30.31,West,280,0.0,1.2,91,0.00,CLR,,0.00,WeatherDisplay:10.37,2013-04-15 10:25:00,
2013-04-15 06:30:00,29.3,27.0,30.32,West,280,0.0,0.0,91,0.00,CLR,,0.00,WeatherDisplay:10.37,2013-04-15 10:30:00,
2013-04-15 06:35:00,29.3,27.3,30.32,West,280,0.0,1.2,92,0.00,CLR,,0.00,WeatherDisplay:10.37,2013-04-15 10:35:00,
2013-04-15 06:40:00,29.4,27.4,30.32,West,280,0.0,0.0,92,0.00,CLR,,0.00,WeatherDisplay:10.37,2013-04-15 10:40:00,
2013-04-15 06:45:00,29.6,27.6,30.33,West,280,0.0,0.0,92,0.00,CLR,,0.00,WeatherDisplay:10.37,2013-04-15 10:45:00,
2013-04-15 06:50:00,29.7,27.7,30.33,West,280,0.0,0.0,92,0.00,CLR,,0.00,WeatherDisplay:10.37,2013-04-15 10:50:00,
2013-04-15 06:55:00,29.9,27.9,30.33,West,280,0.0,0.0,92,0.00,CLR,,0.00,WeatherDisplay:10.37,2013-04-15 10:55:00,
2013-04-15 07:00:00,30.2,28.2,30.34,West,280,0.3,1.2,92,0.00,CLR,,0.00,WeatherDisplay:10.37,2013-04-15 11:00:00,
2013-04-15 07:05:00,30.4,28.4,30.34,West,280,0.0,0.0,92,0.00,CLR,,0.00,WeatherDisplay:10.37,2013-04-15 11:05:00,
2013-04-15 07:10:00,30.6,28.6,30.34,West,280,0.0,0.0,92,0.00,CLR,,0.00,WeatherDisplay:10.37,2013-04-15 11:10:00,
2013-04-15 07:16:00,30.9,28.9,30.34,West,280,0.0,0.0,92,0.00,CLR,,0.00,WeatherDisplay:10.37,2013-04-15 11:16:00,
2013-04-15 07:21:00,31.3,29.2,30.35,West,280,0.0,0.0,92,0.00,CLR,,0.00,WeatherDisplay:10.37,2013-04-15 11:21:00,
2013-04-15 07:26:00,31.7,29.4,30.35,West,280,0.0,0.0,91,0.00,CLR,,0.00,WeatherDisplay:10.37,2013-04-15 11:26:00,
2013-04-15 07:31:00,32.2,30.1,30.35,West,280,0.0,0.0,92,0.00,CLR,,0.00,WeatherDisplay:10.37,2013-04-15 11:31:00,
2013-04-15 07:36:00,32.8,30.5,30.35,West,280,0.0,0.0,91,0.00,CLR,,0.00,WeatherDisplay:10.37,2013-04-15 11:36:00,
2013-04-15 07:41:00,33.4,30.8,30.36,West,280,0.0,0.0,90,0.00,CLR,,0.00,WeatherDisplay:10.37,2013-04-15 11:41:00,
2013-04-15 07:46:00,34.1,31.2,30.36,West,280,0.0,0.0,89,0.00,CLR,,0.00,WeatherDisplay:10.37,2013-04-15 11:46:00,
2013-04-15 07:51:00,35.0,31.8,30.36,West,280,0.0,0.0,88,0.00,CLR,,0.00,WeatherDisplay:10.37,2013-04-15 11:51:00,
2013-04-15 07:56:00,35.7,31.9,30.36,West,280,0.0,0.0,86,0.00,CLR,,0.00,WeatherDisplay:10.37,2013-04-15 11:56:00,
2013-04-15 08:01:00,36.6,31.9,30.36,West,280,1.1,2.3,83,0.00,CLR,,0.00,WeatherDisplay:10.37,2013-04-15 12:01:00,
2013-04-15 08:06:00,37.5,31.9,30.36,NW,325,0.8,2.3,80,0.00,CLR,,0.00,WeatherDisplay:10.37,2013-04-15 12:06:00,
2013-04-15 08:11:00,38.2,32.3,30.36,NW,325,0.9,3.0,79,0.00,CLR,,0.00,WeatherDisplay:10.37,2013-04-15 12:11:00,
2013-04-15 08:16:00,38.8,32.5,30.36,NW,315,1.0,2.0,78,0.00,CLR,,0.00,WeatherDisplay:10.37,2013-04-15 12:16:00,
2013-04-15 08:21:00,39.3,32.7,30.36,North,11,0.0,1.2,77,0.00,CLR,,0.00,WeatherDisplay:10.37,2013-04-15 12:21:00,
2013-04-15 08:26:00,40.0,33.0,30.36,NNW,333,0.4,1.2,76,0.00,CLR,,0.00,WeatherDisplay:10.37,2013-04-15 12:26:00,
2013-04-15 08:31:00,40.6,33.3,30.36,NNW,333,0.5,1.2,75,0.00,CLR,,0.00,WeatherDisplay:10.37,2013-04-15 12:31:00,
2013-04-15 08:37:00,41.4,33.4,30.36,NNE,17,0.4,2.0,73,0.00,CLR,,0.00,WeatherDisplay:10.37,2013-04-15 12:37:00,
2013-04-15 08:42:00,42.0,33.3,30.36,NNE,17,1.3,2.3,71,0.00,CLR,,0.00,WeatherDisplay:10.37,2013-04-15 12:42:00,
2013-04-15 08:47:00,42.6,33.1,30.37,NNE,13,0.0,2.3,69,0.00,CLR,,0.00,WeatherDisplay:10.37,2013-04-15 12:47:00,
2013-04-15 08:52:00,43.2,33.3,30.37,ESE,102,0.9,1.2,68,0.00,CLR,,0.00,WeatherDisplay:10.37,2013-04-15 12:52:00,
2013-04-15 08:57:00,43.9,34.0,30.37,East,98,0.0,2.3,68,0.00,CLR,,0.00,WeatherDisplay:10.37,2013-04-15 12:57:00,
2013-04-15 09:03:00,44.3,33.3,30.37,West,275,0.9,3.5,65,0.00,CLR,,0.00,WeatherDisplay:10.37,2013-04-15 13:03:00,
2013-04-15 09:08:00,44.7,33.3,30.37,NW,319,2.2,3.5,64,0.00,CLR,,0.00,WeatherDisplay:10.37,2013-04-15 13:08:00,
2013-04-15 09:13:00,44.9,33.1,30.37,NW,324,2.1,3.5,63,0.00,CLR,,0.00,WeatherDisplay:10.37,2013-04-15 13:13:00,
2013-04-15 09:18:00,45.1,33.2,30.37,West,276,0.6,2.3,63,0.00,CLR,,0.00,WeatherDisplay:10.37,2013-04-15 13:18:00,
2013-04-15 09:23:00,45.7,32.6,30.37,South,184,4.2,6.0,60,0.00,CLR,,0.00,WeatherDisplay:10.37,2013-04-15 13:23:00,
2013-04-15 09:28:00,46.1,33.0,30.36,SSE,157,1.7,3.0,60,0.00,CLR,,0.00,WeatherDisplay:10.37,2013-04-15 13:28:00,
2013-04-15 09:33:00,46.9,32.9,30.36,SSE,160,1.7,3.5,58,0.00,CLR,,0.00,WeatherDisplay:10.37,2013-04-15 13:33:00,
2013-04-15 09:38:00,47.4,33.4,30.37,ESE,106,1.5,3.5,58,0.00,CLR,,0.00,WeatherDisplay:10.37,2013-04-15 13:38:00,
2013-04-15 09:43:00,47.9,32.9,30.37,South,184,4.6,5.0,56,0.00,CLR,,0.00,WeatherDisplay:10.37,2013-04-15 13:43:00,
2013-04-15 09:48:00,47.9,32.9,30.37,SW,216,0.2,2.3,56,0.00,CLR,,0.00,WeatherDisplay:10.37,2013-04-15 13:48:00,
2013-04-15 09:53:00,48.5,32.6,30.38,SSW,209,4.8,5.8,54,0.00,CLR,,0.00,WeatherDisplay:10.37,2013-04-15 13:53:00,
2013-04-15 09:58:00,48.8,32.9,30.38,WNW,292,0.6,3.5,54,0.00,CLR,,0.00,WeatherDisplay:10.37,2013-04-15 13:58:00,
2013-04-15 10:03:00,49.2,32.8,30.38,ESE,114,1.2,4.6,53,0.00,CLR,,0.00,WeatherDisplay:10.37,2013-04-15 14:03:00,
2013-04-15 10:08:00,49.3,32.4,30.38,SW,222,1.2,3.5,52,0.00,CLR,,0.00,WeatherDisplay:10.37,2013-04-15 14:08:00,
2013-04-15 10:13:00,49.5,32.6,30.38,SSE,147,2.4,5.0,52,0.00,CLR,,0.00,WeatherDisplay:10.37,2013-04-15 14:13:00,
2013-04-15 10:18:00,49.9,33.0,30.38,SE,144,1.5,4.6,52,0.00,CLR,,0.00,WeatherDisplay:10.37,2013-04-15 14:18:00,
2013-04-15 10:23:00,50.3,33.3,30.38,SSE,154,1.1,2.3,52,0.00,CLR,,0.00,WeatherDisplay:10.37,2013-04-15 14:23:00,
2013-04-15 10:28:00,50.5,33.0,30.38,SE,146,1.3,2.3,51,0.00,CLR,,0.00,WeatherDisplay:10.37,2013-04-15 14:28:00,
2013-04-15 10:33:00,50.5,33.0,30.38,SSE,158,1.1,2.3,51,0.00,CLR,,0.00,WeatherDisplay:10.37,2013-04-15 14:33:00,
2013-04-15 10:39:00,50.5,32.0,30.38,NW,304,1.2,3.0,49,0.00,CLR,,0.00,WeatherDisplay:10.37,2013-04-15 14:39:00,
2013-04-15 10:44:00,50.3,31.8,30.38,East,100,1.5,3.5,49,0.00,CLR,,0.00,WeatherDisplay:10.37,2013-04-15 14:44:00,
2013-04-15 10:49:00,50.1,32.2,30.38,West,260,2.2,4.6,50,0.00,CLR,,0.00,WeatherDisplay:10.37,2013-04-15 14:49:00,
2013-04-15 10:55:00,49.9,31.5,30.38,South,169,2.4,4.6,49,0.00,CLR,,0.00,WeatherDisplay:10.37,2013-04-15 14:55:00,
2013-04-15 11:00:00,49.9,32.0,30.38,SSW,194,1.1,3.0,50,0.00,CLR,,0.00,WeatherDisplay:10.37,2013-04-15 15:00:00,
2013-04-15 11:05:00,50.1,31.2,30.38,South,180,0.7,3.5,48,0.00,CLR,,0.00,WeatherDisplay:10.37,2013-04-15 15:05:00,
2013-04-15 11:10:00,50.3,31.8,30.38,SSW,194,0.2,2.3,49,0.00,CLR,,0.00,WeatherDisplay:10.37,2013-04-15 15:10:00,
2013-04-15 11:15:00,50.6,32.6,30.38,ESE,118,0.5,2.3,50,0.00,CLR,,0.00,WeatherDisplay:10.37,2013-04-15 15:15:00,
2013-04-15 11:20:00,50.9,32.4,30.38,NNW,342,1.3,3.0,49,0.00,OVC,,0.00,WeatherDisplay:10.37,2013-04-15 15:20:00,
2013-04-15 11:25:00,50.8,32.3,30.37,West,281,0.4,2.3,49,0.00,OVC,,0.00,WeatherDisplay:10.37,2013-04-15 15:25:00,
2013-04-15 11:31:00,51.2,32.7,30.37,SSE,155,0.5,3.5,49,0.00,OVC,,0.00,WeatherDisplay:10.37,2013-04-15 15:31:00,
2013-04-15 11:36:00,51.4,32.3,30.37,North,5,1.8,3.5,48,0.00,OVC,,0.00,WeatherDisplay:10.37,2013-04-15 15:36:00,
2013-04-15 11:41:00,51.4,32.3,30.37,East,92,1.2,4.6,48,0.00,OVC,,0.00,WeatherDisplay:10.37,2013-04-15 15:41:00,
2013-04-15 11:46:00,51.6,32.0,30.37,SW,219,1.7,4.6,47,0.00,OVC,,0.00,WeatherDisplay:10.37,2013-04-15 15:46:00,
2013-04-15 11:51:00,51.8,31.7,30.36,NNW,333,2.7,5.8,46,0.00,OVC,,0.00,WeatherDisplay:10.37,2013-04-15 15:51:00,
2013-04-15 11:56:00,52.0,31.8,30.36,WSW,253,2.9,4.0,46,0.00,OVC,,0.00,WeatherDisplay:10.37,2013-04-15 15:56:00,
2013-04-15 12:01:00,51.9,31.2,30.36,SW,234,4.1,5.8,45,0.00,OVC,,0.00,WeatherDisplay:10.37,2013-04-15 16:01:00,
2013-04-15 12:06:00,52.2,30.9,30.36,WSW,242,2.5,4.6,44,0.00,FEW,,0.00,WeatherDisplay:10.37,2013-04-15 16:06:00,
2013-04-15 12:11:00,52.5,30.6,30.36,South,191,3.5,5.8,43,0.00,FEW,,0.00,WeatherDisplay:10.37,2013-04-15 16:11:00,
2013-04-15 12:16:00,52.8,30.3,30.36,NNW,344,2.3,3.5,42,0.00,FEW,,0.00,WeatherDisplay:10.37,2013-04-15 16:16:00,
2013-04-15 12:21:00,53.3,31.4,30.36,SSW,205,3.3,4.0,43,0.00,FEW,,0.00,WeatherDisplay:10.37,2013-04-15 16:21:00,
2013-04-15 12:26:00,52.9,30.4,30.36,NW,315,3.2,3.5,42,0.00,FEW,,0.00,WeatherDisplay:10.37,2013-04-15 16:26:00,
2013-04-15 12:31:00,52.6,30.7,30.35,SW,219,3.0,3.5,43,0.00,FEW,,0.00,WeatherDisplay:10.37,2013-04-15 16:31:00,
2013-04-15 12:36:00,53.2,30.7,30.35,SE,135,2.2,3.5,42,0.00,FEW,,0.00,WeatherDisplay:10.37,2013-04-15 16:36:00,
2013-04-15 12:41:00,53.5,30.4,30.35,SSE,150,3.3,5.0,41,0.00,FEW,,0.00,WeatherDisplay:10.37,2013-04-15 16:41:00,
2013-04-15 12:46:00,53.5,30.4,30.35,ESE,113,0.9,2.3,41,0.00,FEW,,0.00,WeatherDisplay:10.37,2013-04-15 16:46:00,
2013-04-15 12:51:00,53.6,31.0,30.34,SSE,153,2.0,4.0,42,0.00,FEW,,0.00,WeatherDisplay:10.37,2013-04-15 16:51:00,
2013-04-15 12:57:00,54.1,30.9,30.34,SE,138,2.7,4.0,41,0.00,FEW,,0.00,WeatherDisplay:10.37,2013-04-15 16:57:00,
2013-04-15 13:01:00,54.7,32.6,30.34,SSE,161,1.5,3.5,43,0.00,SCT,,0.00,WeatherDisplay:10.37,2013-04-15 17:01:00,
2013-04-15 13:07:00,54.8,30.9,30.34,WSW,237,2.8,5.0,40,0.00,SCT,,0.00,WeatherDisplay:10.37,2013-04-15 17:07:00,
2013-04-15 13:12:00,54.9,31.6,30.34,NW,325,0.5,6.9,41,0.00,SCT,,0.00,WeatherDisplay:10.37,2013-04-15 17:12:00,
2013-04-15 13:17:00,55.3,31.4,30.34,NNE,26,1.3,3.5,40,0.00,SCT,,0.00,WeatherDisplay:10.37,2013-04-15 17:17:00,
2013-04-15 13:21:00,55.8,31.8,30.34,ESE,115,1.5,4.0,40,0.00,SCT,,0.00,WeatherDisplay:10.37,2013-04-15 17:21:00,
2013-04-15 13:22:00,55.9,31.9,30.34,SW,229,2.1,5.0,40,0.00,SCT,,0.00,WeatherDisplay:10.37,2013-04-15 17:22:00,
2013-04-15 13:25:00,56.2,31.5,30.34,South,182,2.4,5.8,39,0.00,SCT,,0.00,WeatherDisplay:10.37,2013-04-15 17:25:00,
2013-04-15 13:30:00,56.2,30.9,30.34,WSW,256,2.7,5.8,38,0.00,SCT,,0.00,WeatherDisplay:10.37,2013-04-15 17:30:00,
2013-04-15 13:35:00,55.5,29.6,30.34,WNW,290,3.4,6.9,37,0.00,SCT,,0.00,WeatherDisplay:10.37,2013-04-15 17:35:00,
2013-04-15 13:40:00,55.5,30.9,30.34,SSW,194,1.4,7.0,39,0.00,SCT,,0.00,WeatherDisplay:10.37,2013-04-15 17:40:00,
2013-04-15 13:45:00,55.9,30.6,30.34,South,171,3.4,4.6,38,0.00,SCT,,0.00,WeatherDisplay:10.37,2013-04-15 17:45:00,
2013-04-15 13:50:00,56.0,30.7,30.34,SSE,154,0.6,2.0,38,0.00,SCT,,0.00,WeatherDisplay:10.37,2013-04-15 17:50:00,
2013-04-15 13:55:00,56.2,30.2,30.34,SSW,200,3.8,3.8,37,0.00,SCT,,0.00,WeatherDisplay:10.37,2013-04-15 17:55:00,
2013-04-15 14:00:00,56.4,30.4,30.33,East,90,1.7,4.6,37,0.00,SCT,,0.00,WeatherDisplay:10.37,2013-04-15 18:00:00,
2013-04-15 14:05:00,56.5,31.2,30.33,East,80,2.5,4.6,38,0.00,CLR,,0.00,WeatherDisplay:10.37,2013-04-15 18:05:00,
2013-04-15 14:10:00,56.5,31.8,30.33,NW,315,1.7,3.5,39,0.00,CLR,,0.00,WeatherDisplay:10.37,2013-04-15 18:10:00,
2013-04-15 14:16:00,57.2,31.8,30.33,West,264,2.0,4.0,38,0.00,CLR,,0.00,WeatherDisplay:10.37,2013-04-15 18:16:00,
2013-04-15 14:22:00,57.5,30.7,30.33,WSW,249,2.0,4.0,36,0.00,CLR,,0.00,WeatherDisplay:10.37,2013-04-15 18:22:00,
2013-04-15 14:28:00,57.8,31.0,30.33,West,277,1.8,4.0,36,0.00,CLR,,0.00,WeatherDisplay:10.37,2013-04-15 18:28:00,
2013-04-15 14:29:00,57.8,31.0,30.33,WNW,286,4.7,6.9,36,0.00,CLR,,0.00,WeatherDisplay:10.37,2013-04-15 18:29:00,
2013-04-15 14:30:00,57.7,30.9,30.33,West,267,4.7,7.0,36,0.00,CLR,,0.00,WeatherDisplay:10.37,2013-04-15 18:30:00,
2013-04-15 14:35:00,56.9,30.9,30.33,WSW,237,1.9,4.6,37,0.00,CLR,,0.00,WeatherDisplay:10.37,2013-04-15 18:35:00,
2013-04-15 14:40:00,57.4,31.3,30.33,WSW,249,0.5,2.3,37,0.00,CLR,,0.00,WeatherDisplay:10.37,2013-04-15 18:40:00,
2013-04-15 14:45:00,57.8,31.7,30.32,West,263,0.4,2.3,37,0.00,CLR,,0.00,WeatherDisplay:10.37,2013-04-15 18:45:00,
2013-04-15 14:50:00,58.3,31.4,30.32,East,87,3.0,6.9,36,0.00,CLR,,0.00,WeatherDisplay:10.37,2013-04-15 18:50:00,
2013-04-15 14:55:00,58.2,32.7,30.32,SSE,158,0.8,5.8,38,0.00,CLR,,0.00,WeatherDisplay:10.37,2013-04-15 18:55:00,
2013-04-15 15:00:00,58.7,32.5,30.32,SSW,209,2.4,6.9,37,0.00,CLR,,0.00,WeatherDisplay:10.37,2013-04-15 19:00:00,
2013-04-15 15:05:00,58.9,32.0,30.32,SW,221,4.9,6.9,36,0.00,CLR,,0.00,WeatherDisplay:10.37,2013-04-15 19:05:00,
2013-04-15 15:10:00,58.3,32.1,30.32,WSW,254,2.0,5.8,37,0.00,CLR,,0.00,WeatherDisplay:10.37,2013-04-15 19:10:00,
2013-04-15 15:15:00,58.6,33.7,30.32,ENE,78,3.0,3.5,39,0.00,CLR,,0.00,WeatherDisplay:10.37,2013-04-15 19:15:00,
2013-04-15 15:20:00,58.4,34.8,30.32,SSE,147,4.3,4.3,41,0.00,CLR,,0.00,WeatherDisplay:10.37,2013-04-15 19:20:00,
2013-04-15 15:25:00,57.3,35.0,30.32,SE,144,5.0,10.4,43,0.00,CLR,,0.00,WeatherDisplay:10.37,2013-04-15 19:25:00,
2013-04-15 15:30:00,56.7,35.0,30.31,SSE,163,3.3,10.4,44,0.00,CLR,,0.00,WeatherDisplay:10.37,2013-04-15 19:30:00,
2013-04-15 15:35:00,56.8,35.1,30.31,SE,142,4.8,7.0,44,0.00,CLR,,0.00,WeatherDisplay:10.37,2013-04-15 19:35:00,
2013-04-15 15:40:00,56.6,34.9,30.31,SSE,154,4.1,7.0,44,0.00,CLR,,0.00,WeatherDisplay:10.37,2013-04-15 19:40:00,
2013-04-15 15:45:00,56.0,34.9,30.31,SSE,163,4.5,10.4,45,0.00,CLR,,0.00,WeatherDisplay:10.37,2013-04-15 19:45:00,
2013-04-15 15:51:00,56.1,35.0,30.31,ENE,77,6.8,10.4,45,0.00,CLR,,0.00,WeatherDisplay:10.37,2013-04-15 19:51:00,
2013-04-15 15:57:00,55.9,35.4,30.31,SSW,193,3.1,11.0,46,0.00,CLR,,0.00,WeatherDisplay:10.37,2013-04-15 19:57:00,
2013-04-15 16:02:00,55.9,34.8,30.31,SE,143,3.6,8.1,45,0.00,CLR,,0.00,WeatherDisplay:10.37,2013-04-15 20:02:00,
2013-04-15 16:07:00,55.9,35.4,30.30,SSE,164,5.6,8.1,46,0.00,CLR,,0.00,WeatherDisplay:10.37,2013-04-15 20:07:00,
2013-04-15 16:12:00,55.9,35.4,30.31,ESE,116,6.1,10.4,46,0.00,CLR,,0.00,WeatherDisplay:10.37,2013-04-15 20:12:00,
2013-04-15 16:17:00,55.3,34.9,30.31,SE,133,7.0,10.4,46,0.00,CLR,,0.00,WeatherDisplay:10.37,2013-04-15 20:17:00,
2013-04-15 16:22:00,54.9,35.6,30.31,South,178,5.3,8.1,48,0.00,CLR,,0.00,WeatherDisplay:10.37,2013-04-15 20:22:00,
2013-04-15 16:27:00,55.0,35.7,30.31,South,172,5.1,9.2,48,0.00,CLR,,0.00,WeatherDisplay:10.37,2013-04-15 20:27:00,
2013-04-15 16:32:00,54.7,35.4,30.31,South,190,7.7,13.0,48,0.00,CLR,,0.00,WeatherDisplay:10.37,2013-04-15 20:32:00,
2013-04-15 16:37:00,53.9,35.2,30.31,East,83,5.9,12.7,49,0.00,CLR,,0.00,WeatherDisplay:10.37,2013-04-15 20:37:00,
2013-04-15 16:42:00,54.0,35.8,30.31,SE,145,4.4,8.1,50,0.00,CLR,,0.00,WeatherDisplay:10.37,2013-04-15 20:42:00,
2013-04-15 16:47:00,54.2,35.9,30.30,SSE,155,5.8,11.5,50,0.00,CLR,,0.00,WeatherDisplay:10.37,2013-04-15 20:47:00,
2013-04-15 16:52:00,53.7,35.5,30.31,South,170,7.1,10.4,50,0.00,CLR,,0.00,WeatherDisplay:10.37,2013-04-15 20:52:00,
2013-04-15 16:57:00,53.5,35.3,30.31,SSW,196,5.7,9.2,50,0.00,CLR,,0.00,WeatherDisplay:10.37,2013-04-15 20:57:00,
2013-04-15 17:02:00,53.3,35.1,30.31,South,169,5.1,6.9,50,0.00,CLR,,0.00,WeatherDisplay:10.37,2013-04-15 21:02:00,
2013-04-15 17:07:00,53.5,35.3,30.31,South,174,6.8,11.5,50,0.00,CLR,,0.00,WeatherDisplay:10.37,2013-04-15 21:07:00,
2013-04-15 17:12:00,53.3,35.1,30.31,SSE,154,1.3,6.9,50,0.00,CLR,,0.00,WeatherDisplay:10.37,2013-04-15 21:12:00,
2013-04-15 17:17:00,53.4,34.7,30.32,SSE,165,4.0,9.0,49,0.00,CLR,,0.00,WeatherDisplay:10.37,2013-04-15 21:17:00,
2013-04-15 17:22:00,53.0,34.8,30.31,SSE,147,6.9,10.4,50,0.00,CLR,,0.00,WeatherDisplay:10.37,2013-04-15 21:22:00,
2013-04-15 17:27:00,53.0,34.8,30.32,SSE,159,5.2,8.1,50,0.00,CLR,,0.00,WeatherDisplay:10.37,2013-04-15 21:27:00,
2013-04-15 17:32:00,52.8,35.2,30.32,SE,136,5.1,8.1,51,0.00,CLR,,0.00,WeatherDisplay:10.37,2013-04-15 21:32:00,
2013-04-15 17:37:00,52.8,35.2,30.32,SSE,154,4.0,5.8,51,0.00,CLR,,0.00,WeatherDisplay:10.37,2013-04-15 21:37:00,
2013-04-15 17:42:00,52.6,35.0,30.32,SSE,162,4.3,7.0,51,0.00,CLR,,0.00,WeatherDisplay:10.37,2013-04-15 21:42:00,
2013-04-15 17:47:00,52.5,34.9,30.32,SSE,160,4.0,6.9,51,0.00,CLR,,0.00,WeatherDisplay:10.37,2013-04-15 21:47:00,
2013-04-15 17:52:00,52.4,34.8,30.32,SE,146,5.8,8.1,51,0.00,CLR,,0.00,WeatherDisplay:10.37,2013-04-15 21:52:00,
2013-04-15 17:57:00,52.4,35.3,30.32,SE,142,2.9,4.0,52,0.00,CLR,,0.00,WeatherDisplay:10.37,2013-04-15 21:57:00,
2013-04-15 18:02:00,52.3,35.2,30.32,ESE,115,3.7,9.2,52,0.00,CLR,,0.00,WeatherDisplay:10.37,2013-04-15 22:02:00,
2013-04-15 18:07:00,52.2,35.6,30.32,South,188,2.3,4.6,53,0.00,CLR,,0.00,WeatherDisplay:10.37,2013-04-15 22:07:00,
2013-04-15 18:12:00,52.2,36.5,30.33,ESE,116,1.6,5.8,55,0.00,CLR,,0.00,WeatherDisplay:10.37,2013-04-15 22:12:00,
2013-04-15 18:17:00,52.0,36.8,30.33,South,171,2.5,5.8,56,0.00,CLR,,0.00,WeatherDisplay:10.37,2013-04-15 22:17:00,
2013-04-15 18:22:00,51.8,37.0,30.33,East,95,4.6,8.1,57,0.00,CLR,,0.00,WeatherDisplay:10.37,2013-04-15 22:22:00,
2013-04-15 18:27:00,51.5,37.2,30.33,ENE,78,2.3,6.9,58,0.00,CLR,,0.00,WeatherDisplay:10.37,2013-04-15 22:27:00,
2013-04-15 18:32:00,51.3,37.4,30.33,SE,131,4.6,5.8,59,0.00,CLR,,0.00,WeatherDisplay:10.37,2013-04-15 22:32:00,
2013-04-15 18:37:00,51.0,37.6,30.33,SSW,208,1.9,4.0,60,0.00,CLR,,0.00,WeatherDisplay:10.37,2013-04-15 22:37:00,
2013-04-15 18:42:00,50.7,37.7,30.33,South,178,3.9,6.9,61,0.00,CLR,,0.00,WeatherDisplay:10.37,2013-04-15 22:42:00,
2013-04-15 18:47:00,50.6,38.1,30.33,ESE,110,3.0,5.0,62,0.00,CLR,,0.00,WeatherDisplay:10.37,2013-04-15 22:47:00,
2013-04-15 18:52:00,50.3,38.2,30.33,SSE,149,1.8,4.6,63,0.00,CLR,,0.00,WeatherDisplay:10.37,2013-04-15 22:52:00,
2013-04-15 18:57:00,50.0,37.9,30.33,SSE,149,2.7,5.8,63,0.00,CLR,,0.00,WeatherDisplay:10.37,2013-04-15 22:57:00,
2013-04-15 19:02:00,49.8,38.1,30.33,ENE,73,1.6,3.5,64,0.00,CLR,,0.00,WeatherDisplay:10.37,2013-04-15 23:02:00,
2013-04-15 19:07:00,49.5,38.2,30.34,SE,131,2.3,5.0,65,0.00,CLR,,0.00,WeatherDisplay:10.37,2013-04-15 23:07:00,
2013-04-15 19:12:00,49.2,37.9,30.34,SSE,154,0.9,2.3,65,0.00,CLR,,0.00,WeatherDisplay:10.37,2013-04-15 23:12:00,
2013-04-15 19:17:00,49.0,38.1,30.35,East,91,0.1,1.2,66,0.00,CLR,,0.00,WeatherDisplay:10.37,2013-04-15 23:17:00,
2013-04-15 19:22:00,48.7,37.8,30.35,ENE,67,1.7,3.5,66,0.00,CLR,,0.00,WeatherDisplay:10.37,2013-04-15 23:22:00,
2013-04-15 19:27:00,48.3,37.8,30.36,East,85,1.2,2.3,67,0.00,CLR,,0.00,WeatherDisplay:10.37,2013-04-15 23:27:00,
2013-04-15 19:32:00,48.1,38.0,30.36,SE,124,1.6,3.5,68,0.00,CLR,,0.00,WeatherDisplay:10.37,2013-04-15 23:32:00,
2013-04-15 19:37:00,47.8,38.1,30.36,ESE,104,1.6,3.5,69,0.00,CLR,,0.00,WeatherDisplay:10.37,2013-04-15 23:37:00,
2013-04-15 19:42:00,47.5,38.2,30.36,SE,141,0.2,2.3,70,0.00,CLR,,0.00,WeatherDisplay:10.37,2013-04-15 23:42:00,
2013-04-15 19:47:00,47.3,38.0,30.37,East,98,1.4,2.3,70,0.00,CLR,,0.00,WeatherDisplay:10.37,2013-04-15 23:47:00,
2013-04-15 19:52:00,47.1,38.2,30.37,SE,138,1.1,3.5,71,0.00,CLR,,0.00,WeatherDisplay:10.37,2013-04-15 23:52:00,
2013-04-15 19:57:00,46.9,38.3,30.37,SE,144,1.7,3.5,72,0.00,CLR,,0.00,WeatherDisplay:10.37,2013-04-15 23:57:00,
2013-04-15 20:02:00,46.7,38.1,30.36,SSE,149,1.5,3.5,72,0.00,CLR,,0.00,WeatherDisplay:10.37,2013-04-16 00:02:00,
2013-04-15 20:07:00,46.4,38.2,30.36,SE,144,1.2,3.5,73,0.00,CLR,,0.00,WeatherDisplay:10.37,2013-04-16 00:07:00,
2013-04-15 20:12:00,46.2,38.0,30.36,SE,144,1.2,2.3,73,0.00,CLR,,0.00,WeatherDisplay:10.37,2013-04-16 00:12:00,
2013-04-15 20:17:00,46.0,38.2,30.36,ESE,112,1.3,3.5,74,0.00,CLR,,0.00,WeatherDisplay:10.37,2013-04-16 00:17:00,
2013-04-15 20:22:00,45.9,38.4,30.36,East,88,0.8,2.3,75,0.00,CLR,,0.00,WeatherDisplay:10.37,2013-04-16 00:22:00,
2013-04-15 20:27:00,45.7,38.2,30.36,ESE,113,1.0,3.5,75,0.00,CLR,,0.00,WeatherDisplay:10.37,2013-04-16 00:27:00,
2013-04-15 20:32:00,45.5,38.4,30.36,SE,141,0.9,2.3,76,0.00,CLR,,0.00,WeatherDisplay:10.37,2013-04-16 00:32:00,
2013-04-15 20:37:00,45.4,38.3,30.35,ESE,111,0.2,3.0,76,0.00,CLR,,0.00,WeatherDisplay:10.37,2013-04-16 00:37:00,
2013-04-15 20:42:00,45.2,38.4,30.36,SE,138,0.2,1.2,77,0.00,CLR,,0.00,WeatherDisplay:10.37,2013-04-16 00:42:00,
2013-04-15 20:47:00,45.1,38.3,30.36,SE,142,0.0,1.2,77,0.00,CLR,,0.00,WeatherDisplay:10.37,2013-04-16 00:47:00,
2013-04-15 20:52:00,45.1,38.6,30.36,SE,136,1.0,2.3,78,0.00,CLR,,0.00,WeatherDisplay:10.37,2013-04-16 00:52:00,
2013-04-15 20:57:00,45.0,38.6,30.36,East,92,0.1,1.2,78,0.00,CLR,,0.00,WeatherDisplay:10.37,2013-04-16 00:57:00,
2013-04-15 21:02:00,44.9,38.5,30.37,East,92,0.0,0.0,78,0.00,CLR,,0.00,WeatherDisplay:10.37,2013-04-16 01:02:00,
2013-04-15 21:07:00,44.8,38.4,30.37,East,92,0.0,0.0,78,0.00,CLR,,0.00,WeatherDisplay:10.37,2013-04-16 01:07:00,
2013-04-15 21:12:00,44.7,38.3,30.37,East,92,0.0,0.0,78,0.00,CLR,,0.00,WeatherDisplay:10.37,2013-04-16 01:12:00,
2013-04-15 21:17:00,44.6,38.5,30.37,East,92,0.0,0.0,79,0.00,CLR,,0.00,WeatherDisplay:10.37,2013-04-16 01:17:00,
2013-04-15 21:22:00,44.5,38.4,30.37,East,92,0.0,0.0,79,0.00,CLR,,0.00,WeatherDisplay:10.37,2013-04-16 01:22:00,
2013-04-15 21:27:00,44.3,38.2,30.37,East,92,0.0,0.0,79,0.00,CLR,,0.00,WeatherDisplay:10.37,2013-04-16 01:27:00,
2013-04-15 21:32:00,44.0,37.9,30.37,East,92,0.0,0.0,79,0.00,CLR,,0.00,WeatherDisplay:10.37,2013-04-16 01:32:00,
2013-04-15 21:37:00,43.6,37.8,30.38,East,92,0.1,1.2,80,0.00,CLR,,0.00,WeatherDisplay:10.37,2013-04-16 01:37:00,
2013-04-15 21:42:00,43.1,37.7,30.38,East,92,0.0,0.0,81,0.00,CLR,,0.00,WeatherDisplay:10.37,2013-04-16 01:42:00,
2013-04-15 21:47:00,42.8,37.7,30.38,East,92,0.0,0.0,82,0.00,CLR,,0.00,WeatherDisplay:10.37,2013-04-16 01:47:00,
2013-04-15 21:52:00,42.7,37.6,30.38,East,92,0.0,0.0,82,0.00,CLR,,0.00,WeatherDisplay:10.37,2013-04-16 01:52:00,
2013-04-15 21:57:00,42.6,37.5,30.38,East,92,0.1,1.2,82,0.00,CLR,,0.00,WeatherDisplay:10.37,2013-04-16 01:57:00,
2013-04-15 22:02:00,42.5,37.4,30.38,East,92,0.3,1.2,82,0.00,CLR,,0.00,WeatherDisplay:10.37,2013-04-16 02:02:00,
2013-04-15 22:07:00,42.4,37.0,30.38,East,92,0.0,0.0,81,0.00,CLR,,0.00,WeatherDisplay:10.37,2013-04-16 02:07:00,
2013-04-15 22:12:00,42.4,36.7,30.38,East,92,0.0,1.2,80,0.00,CLR,,0.00,WeatherDisplay:10.37,2013-04-16 02:12:00,
2013-04-15 22:17:00,42.6,36.2,30.38,SSE,163,0.5,3.5,78,0.00,CLR,,0.00,WeatherDisplay:10.37,2013-04-16 02:17:00,
2013-04-15 22:22:00,43.0,36.3,30.38,West,263,0.5,2.3,77,0.00,CLR,,0.00,WeatherDisplay:10.37,2013-04-16 02:22:00,
2013-04-15 22:27:00,43.5,36.1,30.39,SSW,199,0.2,1.2,75,0.00,CLR,,0.00,WeatherDisplay:10.37,2013-04-16 02:27:00,
2013-04-15 22:32:00,43.7,36.0,30.39,SSW,212,1.6,4.0,74,0.00,CLR,,0.00,WeatherDisplay:10.37,2013-04-16 02:32:00,
2013-04-15 22:37:00,44.0,35.9,30.38,SSW,192,0.2,2.3,73,0.00,CLR,,0.00,WeatherDisplay:10.37,2013-04-16 02:37:00,
2013-04-15 22:42:00,44.1,36.0,30.38,SW,219,3.5,9.2,73,0.00,CLR,,0.00,WeatherDisplay:10.37,2013-04-16 02:42:00,
2013-04-15 22:47:00,44.3,35.8,30.38,South,182,0.2,2.3,72,0.00,CLR,,0.00,WeatherDisplay:10.37,2013-04-16 02:47:00,
2013-04-15 22:52:00,44.4,35.9,30.38,SSW,209,2.0,3.5,72,0.00,CLR,,0.00,WeatherDisplay:10.37,2013-04-16 02:52:00,
2013-04-15 22:57:00,44.4,35.9,30.38,SSW,196,1.9,3.5,72,0.00,CLR,,0.00,WeatherDisplay:10.37,2013-04-16 02:57:00,
2013-04-15 23:02:00,44.3,35.8,30.38,SSW,206,1.2,3.5,72,0.00,CLR,,0.00,WeatherDisplay:10.37,2013-04-16 03:02:00,
2013-04-15 23:07:00,44.3,35.8,30.38,South,184,0.0,1.2,72,0.00,CLR,,0.00,WeatherDisplay:10.37,2013-04-16 03:07:00,
2013-04-15 23:12:00,44.2,35.7,30.38,SSW,196,1.6,5.0,72,0.00,CLR,,0.00,WeatherDisplay:10.37,2013-04-16 03:12:00,
2013-04-15 23:17:00,44.1,35.6,30.38,SSE,163,1.0,3.5,72,0.00,CLR,,0.00,WeatherDisplay:10.37,2013-04-16 03:17:00,
2013-04-15 23:22:00,44.1,36.0,30.38,WSW,247,1.4,2.3,73,0.00,CLR,,0.00,WeatherDisplay:10.37,2013-04-16 03:22:00,
2013-04-15 23:27:00,44.0,35.9,30.38,SW,233,0.6,2.3,73,0.00,CLR,,0.00,WeatherDisplay:10.37,2013-04-16 03:27:00,
2013-04-15 23:32:00,43.8,35.7,30.38,SSW,207,0.0,1.2,73,0.00,CLR,,0.00,WeatherDisplay:10.37,2013-04-16 03:32:00,
2013-04-15 23:37:00,43.7,35.6,30.38,SSE,161,0.0,1.2,73,0.00,CLR,,0.00,WeatherDisplay:10.37,2013-04-16 03:37:00,
2013-04-15 23:42:00,43.5,35.8,30.38,WSW,250,0.0,0.0,74,0.00,CLR,,0.00,WeatherDisplay:10.37,2013-04-16 03:42:00,
2013-04-15 23:47:00,43.3,35.6,30.38,SSW,212,0.2,1.2,74,0.00,CLR,,0.00,WeatherDisplay:10.37,2013-04-16 03:47:00,
2013-04-15 23:52:00,43.2,35.8,30.39,South,178,0.6,5.8,75,0.00,CLR,,0.00,WeatherDisplay:10.37,2013-04-16 03:52:00,
2013-04-15 23:57:00,43.2,35.8,30.39,SSW,200,0.1,1.2,75,0.00,CLR,,0.00,WeatherDisplay:10.37,2013-04-16 03:57:00,